TimeEST,TemperatureF,Dew PointF,Humidity,Sea Level PressureIn,VisibilityMPH,Wind Direction,Wind SpeedMPH,Gust SpeedMPH,PrecipitationIn,Events,Conditions,WindDirDegrees,DateUTC
12:06 AM,30.2,28.4,93,29.87,6.0,Calm,Calm,-,0.00,Snow,Light Snow,0,2013-02-25 05:06:00
12:52 AM,30.0,27.0,88,29.94,10.0,NNW,3.5,-,0.00,,Overcast,340,2013-02-25 05:52:00
1:09 AM,30.2,26.6,86,29.89,10.0,Calm,Calm,-,N/A,,Overcast,0,2013-02-25 06:09:00
1:52 AM,30.0,26.1,85,29.96,10.0,Variable,3.5,-,N/A,,Overcast,0,2013-02-25 06:52:00
2:52 AM,28.0,26.1,92,29.96,10.0,Calm,Calm,-,N/A,,Overcast,0,2013-02-25 07:52:00
3:39 AM,28.4,24.8,86,29.92,10.0,North,5.8,-,N/A,,Overcast,360,2013-02-25 08:39:00
3:52 AM,28.0,25.0,88,29.98,10.0,Variable,3.5,-,N/A,,Scattered Clouds,0,2013-02-25 08:52:00
4:52 AM,25.0,24.1,96,30.00,8.0,Calm,Calm,-,N/A,,Clear,0,2013-02-25 09:52:00
5:07 AM,21.2,21.2,100,29.95,1.0,Calm,Calm,-,N/A,,Clear,0,2013-02-25 10:07:00
5:14 AM,21.2,19.4,93,29.95,0.5,Calm,Calm,-,N/A,Fog,Light Freezing Fog,0,2013-02-25 10:14:00
5:44 AM,17.6,15.8,93,29.96,1.2,Calm,Calm,-,N/A,,Clear,0,2013-02-25 10:44:00
5:50 AM,19.4,17.6,93,29.96,0.8,Calm,Calm,-,N/A,,Clear,0,2013-02-25 10:50:00
5:52 AM,19.0,17.1,92,30.02,0.5,Calm,Calm,-,N/A,Fog,Light Freezing Fog,0,2013-02-25 10:52:00
6:08 AM,19.4,17.6,93,29.97,0.2,Calm,Calm,-,N/A,Fog,Light Freezing Fog,0,2013-02-25 11:08:00
6:21 AM,14.0,12.2,93,29.98,1.0,South,3.5,-,N/A,,Clear,170,2013-02-25 11:21:00
6:23 AM,15.8,14.0,93,29.98,1.5,Calm,Calm,-,N/A,,Clear,0,2013-02-25 11:23:00
6:44 AM,15.8,15.8,100,29.99,2.0,Calm,Calm,-,N/A,,Mostly Cloudy,0,2013-02-25 11:44:00
6:52 AM,18.0,16.0,92,30.06,6.0,Calm,Calm,-,N/A,,Mostly Cloudy,0,2013-02-25 11:52:00
7:52 AM,23.0,23.0,100,30.07,7.0,Calm,Calm,-,N/A,,Overcast,0,2013-02-25 12:52:00
8:52 AM,27.0,26.1,96,30.08,9.0,Calm,Calm,-,N/A,,Overcast,0,2013-02-25 13:52:00
9:52 AM,33.1,28.9,85,30.10,10.0,Calm,Calm,-,N/A,,Overcast,0,2013-02-25 14:52:00
10:52 AM,33.1,28.0,82,30.10,10.0,Variable,3.5,-,N/A,,Overcast,0,2013-02-25 15:52:00
11:52 AM,34.0,28.0,79,30.11,10.0,Calm,Calm,-,N/A,,Overcast,0,2013-02-25 16:52:00
12:52 PM,33.1,28.0,82,30.12,10.0,NW,3.5,-,N/A,,Overcast,310,2013-02-25 17:52:00
1:52 PM,33.1,28.0,82,30.15,10.0,WNW,4.6,-,N/A,,Overcast,300,2013-02-25 18:52:00
2:52 PM,33.1,28.0,82,30.16,10.0,NW,4.6,-,N/A,,Overcast,320,2013-02-25 19:52:00
3:52 PM,33.1,28.9,85,30.17,10.0,Calm,Calm,-,N/A,,Overcast,0,2013-02-25 20:52:00
4:52 PM,33.1,30.9,92,30.18,9.0,Calm,Calm,-,N/A,,Overcast,0,2013-02-25 21:52:00
5:52 PM,32.0,30.0,92,30.19,8.0,Calm,Calm,-,N/A,,Overcast,0,2013-02-25 22:52:00
6:52 PM,30.9,30.0,96,30.22,7.0,Calm,Calm,-,N/A,,Overcast,0,2013-02-25 23:52:00
7:22 PM,30.2,30.2,100,30.17,7.0,SSE,3.5,-,N/A,,Overcast,150,2013-02-26 00:22:00
7:52 PM,30.9,30.0,96,30.24,6.0,Calm,Calm,-,N/A,,Overcast,0,2013-02-26 00:52:00
8:03 PM,30.2,30.2,100,30.17,7.0,Calm,Calm,-,N/A,,Overcast,0,2013-02-26 01:03:00
8:14 PM,30.2,30.2,100,30.17,5.0,Calm,Calm,-,N/A,,Overcast,0,2013-02-26 01:14:00
8:52 PM,30.9,30.0,96,30.24,6.0,Calm,Calm,-,N/A,,Overcast,0,2013-02-26 01:52:00
9:52 PM,30.0,30.0,100,30.23,4.0,Calm,Calm,-,N/A,,Overcast,0,2013-02-26 02:52:00
10:52 PM,30.9,30.0,96,30.23,6.0,Calm,Calm,-,N/A,,Overcast,0,2013-02-26 03:52:00
11:52 PM,30.0,28.9,96,30.25,7.0,Calm,Calm,-,N/A,,Overcast,0,2013-02-26 04:52:00